Breckenridge, CO

6:42 PM MST on February 10, 2016 (GMT -0700)
Copper Mountain

Weather History for KCCU - July, 2013

Change the Weather History Date:

Saturday, July 6, 2013

  Actual Average (KLXV) Record (KLXV)
Temperature  
Mean Temperature 55 °F -  
Max Temperature 64 °F 69 °F 83 °F (1989)
Min Temperature 46 °F 41 °F 28 °F (1993)
Degree Days  
Heating Degree Days 10    
Growing Degree Days 5 (Base 50)    
Moisture  
Dew Point 39 °F    
Average Humidity 56    
Maximum Humidity 81    
Minimum Humidity 30    
Precipitation  
Precipitation 0.03 in - - ()
Sea Level Pressure  
Sea Level Pressure 30.54 in    
Wind  
Wind Speed 16 mph (WSW)    
Max Wind Speed 26 mph    
Max Gust Speed 33 mph    
Visibility 10 miles    
Events Rain , Thunderstorm    
Averages and records for this station are not official NWS values.
T = Trace of Precipitation, MM = Missing Value Source: NWS Daily Summary

Daily Weather History Graph

Daily Weather History Graph

Search for Another Location

Airport or City:

Trip Planner

Search our weather history database for the weather conditions in past years. The results will help you decide how hot, cold, wet, or windy it might be!

Date:

Astronomy

Jul. 06, 2013 Rise Set
Actual Time 5:44 AM MDT 8:34 PM MDT
Civil Twilight 5:11 AM MDT 9:06 PM MDT
Nautical Twilight 4:31 AM MDT 9:46 PM MDT
Astronomical Twilight 3:45 AM MDT 10:32 PM MDT
Moon 4:31 AM MDT (7/6) 7:18 PM MDT (7/6)
Length of Visible Light 15h 54m
Length of Day
14h 50m
Waning Crescent, 2% of the Moon is Illuminated
Jul 6
Waning Crescent
Jul 8
New
Jul 15
First Quarter
Jul 22
Full
Jul 29
Last Quarter

Hourly Weather History & Observations

Time (MDT) Temp. Windchill Dew Point Humidity Pressure Visibility Wind Dir Wind Speed Gust Speed Precip Events Conditions
12:12 AM 53.6 °F - 41.0 °F 62% 30.49 in 10.0 mi South 26.5 mph 29.9 mph N/A Thunderstorm Thunderstorm
12:32 AM 53.6 °F - 42.8 °F 67% 30.52 in 10.0 mi SSW 20.7 mph 32.2 mph N/A Rain , Thunderstorm Light Thunderstorms and Rain
12:52 AM 51.8 °F - 41.0 °F 67% 30.52 in 7.0 mi West 20.7 mph 28.8 mph 0.03 in Rain Light Rain
1:12 AM 50.0 °F - 41.0 °F 71% 30.50 in 10.0 mi South 6.9 mph - N/A Rain , Thunderstorm Light Thunderstorms and Rain
1:25 AM 50.0 °F - 41.0 °F 71% 30.50 in 10.0 mi South 12.7 mph - N/A   Overcast
2:32 AM 46.4 °F 40.7 °F 41.0 °F 81% 30.51 in 1.0 mi West 12.7 mph - N/A   Haze
2:52 AM 46.4 °F 39.2 °F 39.2 °F 76% 30.51 in 10.0 mi West 18.4 mph - N/A   Scattered Clouds
3:12 AM 46.4 °F 39.8 °F 41.0 °F 81% 30.52 in 0.2 mi West 16.1 mph 23.0 mph N/A   Haze
3:32 AM 46.4 °F 39.8 °F 41.0 °F 81% 30.52 in 10.0 mi West 16.1 mph - N/A Thunderstorm Mostly Cloudy
3:52 AM 46.4 °F 43.5 °F 41.0 °F 81% 30.51 in 10.0 mi SW 5.8 mph - N/A   Scattered Clouds
4:12 AM 46.4 °F 41.9 °F 39.2 °F 76% 30.52 in 10.0 mi West 9.2 mph - N/A   Scattered Clouds
4:32 AM 46.4 °F 41.1 °F 41.0 °F 81% 30.51 in 10.0 mi West 11.5 mph - N/A   Mostly Cloudy
4:52 AM 46.4 °F 41.5 °F 39.2 °F 76% 30.51 in 10.0 mi West 10.4 mph - N/A   Scattered Clouds
5:12 AM 46.4 °F 39.8 °F 39.2 °F 76% 30.50 in 10.0 mi West 16.1 mph - N/A   Clear
5:32 AM 46.4 °F 40.7 °F 39.2 °F 76% 30.50 in 10.0 mi West 12.7 mph - N/A   Clear
5:52 AM 46.4 °F 41.9 °F 37.4 °F 71% 30.50 in 10.0 mi WSW 9.2 mph - N/A   Clear
6:12 AM 46.4 °F 41.9 °F 37.4 °F 71% 30.51 in 10.0 mi WSW 9.2 mph 18.4 mph N/A   Clear
6:32 AM 46.4 °F 43.5 °F 37.4 °F 71% 30.51 in 10.0 mi SW 5.8 mph - N/A   Clear
6:52 AM 46.4 °F 40.4 °F 39.2 °F 76% 30.51 in 10.0 mi South 13.8 mph - N/A   Clear
7:12 AM 50.0 °F - 41.0 °F 71% 30.51 in 10.0 mi SW 5.8 mph - N/A   Clear
7:32 AM 50.0 °F - 41.0 °F 71% 30.52 in 10.0 mi SW 5.8 mph - N/A   Clear
7:52 AM 51.8 °F - 41.0 °F 67% 30.52 in 10.0 mi WSW 5.8 mph - N/A   Clear
8:12 AM 53.6 °F - 41.0 °F 62% 30.53 in 10.0 mi West 10.4 mph - N/A   Clear
8:32 AM 53.6 °F - 41.0 °F 62% 30.53 in 10.0 mi WSW 5.8 mph - N/A   Clear
8:52 AM 53.6 °F - 41.0 °F 62% 30.54 in 10.0 mi West 8.1 mph - N/A   Clear
9:12 AM 53.6 °F - 39.2 °F 58% 30.54 in 10.0 mi West 13.8 mph 17.3 mph N/A   Clear
9:32 AM 53.6 °F - 41.0 °F 62% 30.54 in 10.0 mi WSW 6.9 mph - N/A   Clear
9:52 AM 53.6 °F - 39.2 °F 58% 30.55 in 10.0 mi WSW 12.7 mph 20.7 mph N/A   Clear
10:12 AM 55.4 °F - 41.0 °F 58% 30.55 in 10.0 mi West 17.3 mph 24.2 mph N/A   Scattered Clouds
10:32 AM 57.2 °F - 41.0 °F 55% 30.56 in 10.0 mi West 19.6 mph 25.3 mph N/A   Mostly Cloudy
10:52 AM 59.0 °F - 42.8 °F 55% 30.56 in 10.0 mi West 17.3 mph 20.7 mph N/A   Scattered Clouds
11:12 AM 59.0 °F - 41.0 °F 51% 30.55 in 10.0 mi West 26.5 mph 32.2 mph N/A   Scattered Clouds
11:32 AM 59.0 °F - 39.2 °F 48% 30.55 in 10.0 mi West 26.5 mph 31.1 mph N/A   Scattered Clouds
11:52 AM 59.0 °F - 37.4 °F 45% 30.55 in 10.0 mi West 26.5 mph 33.4 mph N/A   Scattered Clouds
11:56 AM 59.0 °F - 39.2 °F 48% 30.56 in 10.0 mi West 23.0 mph 31.1 mph N/A   Scattered Clouds
12:52 PM 59.0 °F - 41.0 °F 51% 30.58 in 10.0 mi West 20.7 mph 29.9 mph N/A Rain Light Rain
1:12 PM 60.8 °F - 41.0 °F 48% 30.57 in 10.0 mi West 19.6 mph 25.3 mph N/A   Scattered Clouds
1:32 PM 59.0 °F - 41.0 °F 51% 30.57 in 10.0 mi West 18.4 mph 25.3 mph N/A   Mostly Cloudy
1:52 PM 60.8 °F - 41.0 °F 48% 30.57 in 10.0 mi West 15.0 mph 19.6 mph N/A   Scattered Clouds
2:12 PM 60.8 °F - 39.2 °F 45% 30.57 in 10.0 mi West 15.0 mph 21.9 mph N/A   Scattered Clouds
2:32 PM 64.4 °F - 41.0 °F 42% 30.56 in 10.0 mi West 16.1 mph 20.7 mph N/A   Scattered Clouds
2:52 PM 62.6 °F - 39.2 °F 42% 30.56 in 10.0 mi West 17.3 mph 25.3 mph N/A   Scattered Clouds
3:12 PM 62.6 °F - 37.4 °F 39% 30.56 in 10.0 mi West 12.7 mph 21.9 mph N/A Thunderstorm Mostly Cloudy
3:32 PM 64.4 °F - 37.4 °F 37% 30.55 in 10.0 mi West 17.3 mph 24.2 mph N/A   Scattered Clouds
3:52 PM 64.4 °F - 37.4 °F 37% 30.55 in 10.0 mi West 17.3 mph 24.2 mph N/A Thunderstorm Thunderstorm
4:12 PM 62.6 °F - 37.4 °F 39% 30.55 in 10.0 mi West 17.3 mph 25.3 mph N/A   Mostly Cloudy
4:32 PM 64.4 °F - 39.2 °F 40% 30.54 in 10.0 mi WNW 16.1 mph 20.7 mph N/A   Mostly Cloudy
4:52 PM 64.4 °F - 35.6 °F 34% 30.54 in 10.0 mi WNW 16.1 mph 25.3 mph N/A   Scattered Clouds
5:12 PM 64.4 °F - 35.6 °F 34% 30.54 in 10.0 mi WNW 19.6 mph 25.3 mph N/A   Scattered Clouds
5:32 PM 60.8 °F - 33.8 °F 36% 30.54 in 10.0 mi West 16.1 mph - N/A   Scattered Clouds
5:52 PM 64.4 °F - 32.0 °F 30% 30.53 in 10.0 mi West 16.1 mph 23.0 mph N/A   Clear
6:12 PM 64.4 °F - 32.0 °F 30% 30.53 in 10.0 mi WNW 15.0 mph 21.9 mph N/A   Clear
6:32 PM 64.4 °F - 32.0 °F 30% 30.53 in 10.0 mi West 18.4 mph - N/A   Clear
6:52 PM 62.6 °F - 32.0 °F 32% 30.53 in 10.0 mi West 17.3 mph - N/A   Clear
7:12 PM 60.8 °F - 32.0 °F 34% 30.54 in 10.0 mi West 16.1 mph - N/A   Clear
7:32 PM 60.8 °F - 32.0 °F 34% 30.53 in 10.0 mi West 12.7 mph - N/A   Scattered Clouds
7:52 PM 59.0 °F - 35.6 °F 42% 30.54 in 10.0 mi West 5.8 mph - N/A   Mostly Cloudy
8:12 PM 59.0 °F - 37.4 °F 45% 30.54 in 10.0 mi West 6.9 mph - N/A   Mostly Cloudy
8:32 PM 59.0 °F - 37.4 °F 45% 30.55 in 10.0 mi SSW 5.8 mph - N/A   Mostly Cloudy
8:52 PM 59.0 °F - 41.0 °F 51% 30.55 in 10.0 mi South 8.1 mph - N/A Thunderstorm Thunderstorm
9:12 PM 57.2 °F - 41.0 °F 55% 30.55 in 10.0 mi South 18.4 mph 24.2 mph N/A   Clear
9:32 PM 55.4 °F - 41.0 °F 58% 30.56 in 10.0 mi SSW 11.5 mph 19.6 mph N/A Thunderstorm Scattered Clouds
9:52 PM 55.4 °F - 41.0 °F 58% 30.57 in 10.0 mi South 17.3 mph - N/A Thunderstorm Scattered Clouds
10:12 PM 53.6 °F - 39.2 °F 58% 30.59 in 10.0 mi South 19.6 mph 24.2 mph N/A   Mostly Cloudy
10:32 PM 53.6 °F - 39.2 °F 58% 30.59 in 10.0 mi South 20.7 mph - N/A   Overcast
10:52 PM 53.6 °F - 39.2 °F 58% 30.59 in 10.0 mi South 17.3 mph - N/A   Mostly Cloudy
11:12 PM 55.4 °F - 39.2 °F 54% 30.58 in 10.0 mi South 17.3 mph - N/A   Overcast
11:32 PM 53.6 °F - 39.2 °F 58% 30.57 in 10.0 mi South 20.7 mph - N/A   Mostly Cloudy
11:52 PM 53.6 °F - 39.2 °F 58% 30.57 in 10.0 mi South 18.4 mph - N/A Thunderstorm Clear